Simultaneous Nadir Overpasses (SNOs) Predictions

Prediction of SNOs between AQUA and METOP-B Satellite Orbit:

Table of predicted SNOs for the next 14.0 days since TLE Epoch: 1/10/2015
Index Date (AQUA) Time (AQUA) Lat,Lon (AQUA) SZA (AQUA ) Date (METOP-B) Time (METOP-B) Lat,Lon (METOP-B) SZA (METOP-B ) Distance(km) Time Diff (sec)
1 01/12/2015 03:59:00 73.32, 115.56 95.03 01/12/2015 03:57:51 73.28, 113.94 95.07 51.90 69
2 01/12/2015 04:48:33 -73.71, -77.62 84.56 01/12/2015 04:48:24 -73.72, -77.72 84.54 3.66 9
3 01/12/2015 05:38:03 73.83, 89.75 95.57 01/12/2015 05:39:02 73.82, 89.83 95.54 2.97 59
4 01/14/2015 23:33:23 73.44,-178.27 94.69 01/14/2015 23:32:12 73.42,-179.35 94.72 34.32 71
5 01/15/2015 00:22:55 -73.77, -11.34 84.97 01/15/2015 00:22:47 -73.76, -11.24 84.98 3.58 8
6 01/15/2015 01:12:23 73.79, 156.25 95.06 01/15/2015 01:13:26 73.80, 156.19 95.05 1.65 63
7 01/17/2015 19:07:45 73.60,-112.19 94.34 01/17/2015 19:06:32 73.54,-112.65 94.31 15.86 73
8 01/17/2015 19:57:13 -73.72, 55.19 85.55 01/17/2015 19:57:10 -73.73, 55.11 85.53 2.73 3
9 01/17/2015 20:46:42 73.80,-137.35 94.54 01/17/2015 20:47:48 73.82,-137.34 94.55 2.52 66
10 01/20/2015 14:42:05 73.65, -45.87 93.81 01/20/2015 14:40:53 73.66, -45.97 93.84 3.41 72
11 01/20/2015 15:31:33 -73.77, 121.52 86.08 01/20/2015 15:31:33 -73.75, 121.56 86.09 2.26 0
12 01/20/2015 16:21:01 73.80, -70.91 93.96 01/20/2015 16:22:12 73.79, -71.00 93.94 2.93 71
13 01/23/2015 10:16:24 73.69, 20.48 93.23 01/23/2015 10:15:16 73.67, 20.46 93.22 2.05 68
14 01/23/2015 11:05:51 -73.75,-172.01 86.72 01/23/2015 11:05:56 -73.76,-172.00 86.71 1.08 5




NCC Satellite Simultaneous Nadir Overpasses (SNOs) Prediction Service
